owner,sensor,date,latitude,longitude,vertical_datum,mass_concentration_of_oxygen_in_sea_water,qcFlag 
SCCF RECON,ioos:station:SCCF:11:1,2014-07-01T00:00:00Z,26.4679,-82.0631,1.608,5.15,1111122 
SCCF RECON,ioos:station:SCCF:11:1,2014-07-01T01:00:00Z,26.4679,-82.0631,1.492,4.93,1111122 
SCCF RECON,ioos:station:SCCF:11:1,2014-07-01T02:00:00Z,26.4679,-82.0631,1.421,4.62,1111122 
SCCF RECON,ioos:station:SCCF:11:1,2014-07-01T03:00:00Z,26.4679,-82.0631,1.4,4.26,1111122 
SCCF RECON,ioos:station:SCCF:11:1,2014-07-01T04:00:00Z,26.4679,-82.0631,1.42,3.91,1111122 
SCCF RECON,ioos:station:SCCF:11:1,2014-07-01T05:00:00Z,26.4679,-82.0631,1.51,4.08,1111122 
SCCF RECON,ioos:station:SCCF:11:1,2014-07-01T06:00:00Z,26.4679,-82.0631,1.63,4.05,1111122 
SCCF RECON,ioos:station:SCCF:11:1,2014-07-01T07:00:00Z,26.4679,-82.0631,1.7,4.04,1111122 
SCCF RECON,ioos:station:SCCF:11:1,2014-07-01T08:00:00Z,26.4679,-82.0631,1.772,3.7,1111122 
SCCF RECON,ioos:station:SCCF:11:1,2014-07-01T09:00:00Z,26.4679,-82.0631,1.87,3.98,1111122 
SCCF RECON,ioos:station:SCCF:11:1,2014-07-01T10:00:00Z,26.4679,-82.0631,1.91,3.65,1111122 
SCCF RECON,ioos:station:SCCF:11:1,2014-07-01T11:00:00Z,26.4679,-82.0631,1.89,3.69,1111122 
SCCF RECON,ioos:station:SCCF:11:1,2014-07-01T12:00:00Z,26.4679,-82.0631,1.83,3.46,1111122 
SCCF RECON,ioos:station:SCCF:11:1,2014-07-01T13:00:00Z,26.4679,-82.0631,1.751,3.24,1111122 
SCCF RECON,ioos:station:SCCF:11:1,2014-07-01T14:00:00Z,26.4679,-82.0631,1.7,3.54,1111122 
SCCF RECON,ioos:station:SCCF:11:1,2014-07-01T15:00:00Z,26.4679,-82.0631,1.72,4.27,1111122 
SCCF RECON,ioos:station:SCCF:11:1,2014-07-01T16:00:00Z,26.4679,-82.0631,1.77,4.64,1111122 
SCCF RECON,ioos:station:SCCF:11:1,2014-07-01T17:00:00Z,26.4679,-82.0631,1.84,4.41,1111122 
SCCF RECON,ioos:station:SCCF:11:1,2014-07-01T18:00:00Z,26.4679,-82.0631,1.92,4.32,1111122 
SCCF RECON,ioos:station:SCCF:11:1,2014-07-01T19:00:00Z,26.4679,-82.0631,1.987,4.42,1111122 
SCCF RECON,ioos:station:SCCF:11:1,2014-07-01T20:00:00Z,26.4679,-82.0631,2.03,5.13,1111122 
SCCF RECON,ioos:station:SCCF:11:1,2014-07-01T21:00:00Z,26.4679,-82.0631,2.03,5.71,1111122 
SCCF RECON,ioos:station:SCCF:11:1,2014-07-01T22:00:00Z,26.4679,-82.0631,1.96,5.99,1111122 
SCCF RECON,ioos:station:SCCF:11:1,2014-07-01T23:00:00Z,26.4679,-82.0631,1.86,5.87,1111122 
SCCF RECON,ioos:station:SCCF:11:1,2014-07-02T00:00:00Z,26.4679,-82.0631,1.75,5.66,1111122 
SCCF RECON,ioos:station:SCCF:11:1,2014-07-02T01:00:00Z,26.4679,-82.0631,1.66,5.43,1111122 
SCCF RECON,ioos:station:SCCF:11:1,2014-07-02T02:00:00Z,26.4679,-82.0631,1.56,5.22,1111122 
SCCF RECON,ioos:station:SCCF:11:1,2014-07-02T03:00:00Z,26.4679,-82.0631,1.486,4.97,1111122 
SCCF RECON,ioos:station:SCCF:11:1,2014-07-02T04:00:00Z,26.4679,-82.0631,1.48,4.4,1111122 
SCCF RECON,ioos:station:SCCF:11:1,2014-07-02T05:00:00Z,26.4679,-82.0631,1.55,4.37,1111122 
SCCF RECON,ioos:station:SCCF:11:1,2014-07-02T06:00:00Z,26.4679,-82.0631,1.668,4.22,1111122 
SCCF RECON,ioos:station:SCCF:11:1,2014-07-02T07:00:00Z,26.4679,-82.0631,1.77,3.97,1111122 
SCCF RECON,ioos:station:SCCF:11:1,2014-07-02T08:00:00Z,26.4679,-82.0631,1.85,3.82,1111122 
SCCF RECON,ioos:station:SCCF:11:1,2014-07-02T09:00:00Z,26.4679,-82.0631,1.92,3.89,1111122 
SCCF RECON,ioos:station:SCCF:11:1,2014-07-02T10:00:00Z,26.4679,-82.0631,1.96,4.0,1111122 
SCCF RECON,ioos:station:SCCF:11:1,2014-07-02T11:00:00Z,26.4679,-82.0631,1.945,3.71,1111122 
SCCF RECON,ioos:station:SCCF:11:1,2014-07-02T12:00:00Z,26.4679,-82.0631,1.9,3.62,1111122 
SCCF RECON,ioos:station:SCCF:11:1,2014-07-02T13:00:00Z,26.4679,-82.0631,1.81,3.48,1111122 
SCCF RECON,ioos:station:SCCF:11:1,2014-07-02T14:00:00Z,26.4679,-82.0631,1.76,3.66,1111122 
SCCF RECON,ioos:station:SCCF:11:1,2014-07-02T15:00:00Z,26.4679,-82.0631,1.74,3.69,1111122 
SCCF RECON,ioos:station:SCCF:11:1,2014-07-02T16:00:00Z,26.4679,-82.0631,1.78,4.38,1111122 
SCCF RECON,ioos:station:SCCF:11:1,2014-07-02T17:00:00Z,26.4679,-82.0631,1.84,4.12,1111122 
SCCF RECON,ioos:station:SCCF:11:1,2014-07-02T18:00:00Z,26.4679,-82.0631,1.91,4.58,1111122 
SCCF RECON,ioos:station:SCCF:11:1,2014-07-02T19:00:00Z,26.4679,-82.0631,1.97,4.72,1111122 
SCCF RECON,ioos:station:SCCF:11:1,2014-07-02T20:00:00Z,26.4679,-82.0631,2.02,5.37,1111122 
SCCF RECON,ioos:station:SCCF:11:1,2014-07-02T21:00:00Z,26.4679,-82.0631,2.02,5.45,1111122 
SCCF RECON,ioos:station:SCCF:11:1,2014-07-02T22:00:00Z,26.4679,-82.0631,2.0,5.87,1111122 
SCCF RECON,ioos:station:SCCF:11:1,2014-07-02T23:00:00Z,26.4679,-82.0631,1.97,5.85,1111122 
SCCF RECON,ioos:station:SCCF:11:1,2014-07-03T00:00:00Z,26.4679,-82.0631,1.86,5.95,1111122 
SCCF RECON,ioos:station:SCCF:11:1,2014-07-03T01:00:00Z,26.4679,-82.0631,1.75,5.66,1111122 
SCCF RECON,ioos:station:SCCF:11:1,2014-07-03T02:00:00Z,26.4679,-82.0631,1.64,5.44,1111122 
SCCF RECON,ioos:station:SCCF:11:1,2014-07-03T03:00:00Z,26.4679,-82.0631,1.57,5.17,1111122 
SCCF RECON,ioos:station:SCCF:11:1,2014-07-03T04:00:00Z,26.4679,-82.0631,1.54,4.98,1111122 
SCCF RECON,ioos:station:SCCF:11:1,2014-07-03T05:00:00Z,26.4679,-82.0631,1.58,4.21,1111122 
SCCF RECON,ioos:station:SCCF:11:1,2014-07-03T06:00:00Z,26.4679,-82.0631,1.68,4.31,1111122 
SCCF RECON,ioos:station:SCCF:11:1,2014-07-03T07:00:00Z,26.4679,-82.0631,1.78,4.0,1111122 
SCCF RECON,ioos:station:SCCF:11:1,2014-07-03T08:00:00Z,26.4679,-82.0631,1.876,3.56,1111122 
SCCF RECON,ioos:station:SCCF:11:1,2014-07-03T09:00:00Z,26.4679,-82.0631,1.95,3.38,1111122 
SCCF RECON,ioos:station:SCCF:11:1,2014-07-03T10:00:00Z,26.4679,-82.0631,2.0,3.91,1111122 
SCCF RECON,ioos:station:SCCF:11:1,2014-07-03T11:00:00Z,26.4679,-82.0631,2.02,3.95,1111122 
SCCF RECON,ioos:station:SCCF:11:1,2014-07-03T12:00:00Z,26.4679,-82.0631,1.99,3.73,1111122 
SCCF RECON,ioos:station:SCCF:11:1,2014-07-03T13:00:00Z,26.4679,-82.0631,1.93,3.62,1111122 
SCCF RECON,ioos:station:SCCF:11:1,2014-07-03T14:00:00Z,26.4679,-82.0631,1.87,3.69,1111122 
SCCF RECON,ioos:station:SCCF:11:1,2014-07-03T15:00:00Z,26.4679,-82.0631,1.82,3.8,1111122 
SCCF RECON,ioos:station:SCCF:11:1,2014-07-03T16:00:00Z,26.4679,-82.0631,1.79,4.0,1111122 
SCCF RECON,ioos:station:SCCF:11:1,2014-07-03T17:00:00Z,26.4679,-82.0631,1.78,4.54,1111122 
SCCF RECON,ioos:station:SCCF:11:1,2014-07-03T18:00:00Z,26.4679,-82.0631,1.82,4.53,1111122 
SCCF RECON,ioos:station:SCCF:11:1,2014-07-03T19:00:00Z,26.4679,-82.0631,1.879,4.87,1111122 
SCCF RECON,ioos:station:SCCF:11:1,2014-07-03T20:00:00Z,26.4679,-82.0631,1.949,5.36,1111122 
SCCF RECON,ioos:station:SCCF:11:1,2014-07-03T21:00:00Z,26.4679,-82.0631,2.0,5.46,1111122 
SCCF RECON,ioos:station:SCCF:11:1,2014-07-03T22:00:00Z,26.4679,-82.0631,2.01,5.55,1111122 
SCCF RECON,ioos:station:SCCF:11:1,2014-07-03T23:00:00Z,26.4679,-82.0631,2.01,5.62,1111122 
SCCF RECON,ioos:station:SCCF:11:1,2014-07-04T00:00:00Z,26.4679,-82.0631,1.97,6.22,1111122 
SCCF RECON,ioos:station:SCCF:11:1,2014-07-04T01:00:00Z,26.4679,-82.0631,1.89,6.08,1111122 
SCCF RECON,ioos:station:SCCF:11:1,2014-07-04T02:00:00Z,26.4679,-82.0631,1.8,5.61,1111122 
SCCF RECON,ioos:station:SCCF:11:1,2014-07-04T03:00:00Z,26.4679,-82.0631,1.71,5.33,1111122 
SCCF RECON,ioos:station:SCCF:11:1,2014-07-04T04:00:00Z,26.4679,-82.0631,1.65,5.14,1111122 
SCCF RECON,ioos:station:SCCF:11:1,2014-07-04T05:00:00Z,26.4679,-82.0631,1.64,5.34,1111122 
SCCF RECON,ioos:station:SCCF:11:1,2014-07-04T06:00:00Z,26.4679,-82.0631,1.68,4.36,1111122 
SCCF RECON,ioos:station:SCCF:11:1,2014-07-04T07:00:00Z,26.4679,-82.0631,1.76,4.36,1111122 
SCCF RECON,ioos:station:SCCF:11:1,2014-07-04T08:00:00Z,26.4679,-82.0631,1.83,3.25,1111122 
SCCF RECON,ioos:station:SCCF:11:1,2014-07-04T09:00:00Z,26.4679,-82.0631,1.9,4.17,1111122 
SCCF RECON,ioos:station:SCCF:11:1,2014-07-04T10:00:00Z,26.4679,-82.0631,1.957,3.65,1111122 
SCCF RECON,ioos:station:SCCF:11:1,2014-07-04T11:00:00Z,26.4679,-82.0631,2.0,4.04,1111122 
SCCF RECON,ioos:station:SCCF:11:1,2014-07-04T12:00:00Z,26.4679,-82.0631,2.01,3.94,1111122 
SCCF RECON,ioos:station:SCCF:11:1,2014-07-04T13:00:00Z,26.4679,-82.0631,2.01,4.14,1111122 
SCCF RECON,ioos:station:SCCF:11:1,2014-07-04T14:00:00Z,26.4679,-82.0631,1.933,4.04,1111122 
SCCF RECON,ioos:station:SCCF:11:1,2014-07-04T15:00:00Z,26.4679,-82.0631,1.84,3.95,1111122 
SCCF RECON,ioos:station:SCCF:11:1,2014-07-04T16:00:00Z,26.4679,-82.0631,1.73,4.07,1111122 
SCCF RECON,ioos:station:SCCF:11:1,2014-07-04T17:00:00Z,26.4679,-82.0631,1.663,4.64,1111122 
SCCF RECON,ioos:station:SCCF:11:1,2014-07-04T18:00:00Z,26.4679,-82.0631,1.67,5.14,1111122 
SCCF RECON,ioos:station:SCCF:11:1,2014-07-04T19:00:00Z,26.4679,-82.0631,1.73,5.15,1111122 
SCCF RECON,ioos:station:SCCF:11:1,2014-07-04T20:00:00Z,26.4679,-82.0631,1.79,5.09,1111122 
SCCF RECON,ioos:station:SCCF:11:1,2014-07-04T21:00:00Z,26.4679,-82.0631,1.84,5.52,1111122 
SCCF RECON,ioos:station:SCCF:11:1,2014-07-04T22:00:00Z,26.4679,-82.0631,1.87,7.33,1111122 
SCCF RECON,ioos:station:SCCF:11:1,2014-07-04T23:00:00Z,26.4679,-82.0631,1.88,7.05,1111122 
SCCF RECON,ioos:station:SCCF:11:1,2014-07-05T00:00:00Z,26.4679,-82.0631,1.88,6.74,1111122 
SCCF RECON,ioos:station:SCCF:11:1,2014-07-05T01:00:00Z,26.4679,-82.0631,1.86,5.96,1111122 
SCCF RECON,ioos:station:SCCF:11:1,2014-07-05T02:00:00Z,26.4679,-82.0631,1.807,6.22,1111122 
SCCF RECON,ioos:station:SCCF:11:1,2014-07-05T03:00:00Z,26.4679,-82.0631,1.73,5.75,1111122 
SCCF RECON,ioos:station:SCCF:11:1,2014-07-05T04:00:00Z,26.4679,-82.0631,1.65,5.25,1111122 
SCCF RECON,ioos:station:SCCF:11:1,2014-07-05T05:00:00Z,26.4679,-82.0631,1.613,5.18,1111122 
SCCF RECON,ioos:station:SCCF:11:1,2014-07-05T06:00:00Z,26.4679,-82.0631,1.61,4.43,1111122 
SCCF RECON,ioos:station:SCCF:11:1,2014-07-05T07:00:00Z,26.4679,-82.0631,1.672,4.81,1111122 
SCCF RECON,ioos:station:SCCF:11:1,2014-07-05T08:00:00Z,26.4679,-82.0631,1.76,4.84,1111122 
SCCF RECON,ioos:station:SCCF:11:1,2014-07-05T09:00:00Z,26.4679,-82.0631,1.84,4.19,1111122 
SCCF RECON,ioos:station:SCCF:11:1,2014-07-05T10:00:00Z,26.4679,-82.0631,1.92,3.79,1111122 
SCCF RECON,ioos:station:SCCF:11:1,2014-07-05T11:00:00Z,26.4679,-82.0631,1.99,4.07,1111122 
SCCF RECON,ioos:station:SCCF:11:1,2014-07-05T12:00:00Z,26.4679,-82.0631,2.04,4.11,1111122 
SCCF RECON,ioos:station:SCCF:11:1,2014-07-05T13:00:00Z,26.4679,-82.0631,2.06,3.76,1111122 
SCCF RECON,ioos:station:SCCF:11:1,2014-07-05T14:00:00Z,26.4679,-82.0631,2.047,4.06,1111122 
SCCF RECON,ioos:station:SCCF:11:1,2014-07-05T15:00:00Z,26.4679,-82.0631,1.94,4.38,1111122 
SCCF RECON,ioos:station:SCCF:11:1,2014-07-05T16:00:00Z,26.4679,-82.0631,1.86,4.41,1111122 
SCCF RECON,ioos:station:SCCF:11:1,2014-07-05T17:00:00Z,26.4679,-82.0631,1.77,4.68,1111122 
SCCF RECON,ioos:station:SCCF:11:1,2014-07-05T18:00:00Z,26.4679,-82.0631,1.71,5.21,1111122 
SCCF RECON,ioos:station:SCCF:11:1,2014-07-05T19:00:00Z,26.4679,-82.0631,1.68,6.06,1111122 
SCCF RECON,ioos:station:SCCF:11:1,2014-07-05T20:00:00Z,26.4679,-82.0631,1.696,5.96,1111122 
SCCF RECON,ioos:station:SCCF:11:1,2014-07-05T21:00:00Z,26.4679,-82.0631,1.762,5.67,1111122 
SCCF RECON,ioos:station:SCCF:11:1,2014-07-05T22:00:00Z,26.4679,-82.0631,1.845,6.0,1111122 
SCCF RECON,ioos:station:SCCF:11:1,2014-07-05T23:00:00Z,26.4679,-82.0631,1.92,5.78,1111122 
SCCF RECON,ioos:station:SCCF:11:1,2014-07-06T00:00:00Z,26.4679,-82.0631,1.94,5.33,1111122 
SCCF RECON,ioos:station:SCCF:11:1,2014-07-06T01:00:00Z,26.4679,-82.0631,1.94,5.4,1111122 
SCCF RECON,ioos:station:SCCF:11:1,2014-07-06T02:00:00Z,26.4679,-82.0631,1.91,5.51,1111122 
SCCF RECON,ioos:station:SCCF:11:1,2014-07-06T03:00:00Z,26.4679,-82.0631,1.88,5.77,1111122 
SCCF RECON,ioos:station:SCCF:11:1,2014-07-06T04:00:00Z,26.4679,-82.0631,1.814,5.52,1111122 
SCCF RECON,ioos:station:SCCF:11:1,2014-07-06T05:00:00Z,26.4679,-82.0631,1.76,5.37,1111122 
SCCF RECON,ioos:station:SCCF:11:1,2014-07-06T06:00:00Z,26.4679,-82.0631,1.711,5.15,1111122 
SCCF RECON,ioos:station:SCCF:11:1,2014-07-06T07:00:00Z,26.4679,-82.0631,1.719,4.92,1111122 
SCCF RECON,ioos:station:SCCF:11:1,2014-07-06T08:00:00Z,26.4679,-82.0631,1.76,4.18,1111122 
SCCF RECON,ioos:station:SCCF:11:1,2014-07-06T09:00:00Z,26.4679,-82.0631,1.85,4.49,1111122 
SCCF RECON,ioos:station:SCCF:11:1,2014-07-06T10:00:00Z,26.4679,-82.0631,1.94,4.24,1111122 
SCCF RECON,ioos:station:SCCF:11:1,2014-07-06T11:00:00Z,26.4679,-82.0631,2.0,3.91,1111122 
SCCF RECON,ioos:station:SCCF:11:1,2014-07-06T12:00:00Z,26.4679,-82.0631,2.08,4.03,1111122 
SCCF RECON,ioos:station:SCCF:11:1,2014-07-06T13:00:00Z,26.4679,-82.0631,2.1,3.91,1111122 
SCCF RECON,ioos:station:SCCF:11:1,2014-07-06T14:00:00Z,26.4679,-82.0631,2.09,4.45,1111122 
SCCF RECON,ioos:station:SCCF:11:1,2014-07-06T15:00:00Z,26.4679,-82.0631,2.03,4.57,1111122 
SCCF RECON,ioos:station:SCCF:11:1,2014-07-06T16:00:00Z,26.4679,-82.0631,1.9,4.62,1111122 
SCCF RECON,ioos:station:SCCF:11:1,2014-07-06T17:00:00Z,26.4679,-82.0631,1.79,4.99,1111122 
SCCF RECON,ioos:station:SCCF:11:1,2014-07-06T18:00:00Z,26.4679,-82.0631,1.72,5.31,1111122 
SCCF RECON,ioos:station:SCCF:11:1,2014-07-06T19:00:00Z,26.4679,-82.0631,1.65,5.72,1111122 
SCCF RECON,ioos:station:SCCF:11:1,2014-07-06T20:00:00Z,26.4679,-82.0631,1.61,6.06,1111122 
SCCF RECON,ioos:station:SCCF:11:1,2014-07-06T21:00:00Z,26.4679,-82.0631,1.64,6.37,1111122 
SCCF RECON,ioos:station:SCCF:11:1,2014-07-06T22:00:00Z,26.4679,-82.0631,1.73,6.02,1111122 
SCCF RECON,ioos:station:SCCF:11:1,2014-07-06T23:00:00Z,26.4679,-82.0631,1.81,5.87,1111122 
SCCF RECON,ioos:station:SCCF:11:1,2014-07-07T00:00:00Z,26.4679,-82.0631,1.87,5.24,1111122 
SCCF RECON,ioos:station:SCCF:11:1,2014-07-07T01:00:00Z,26.4679,-82.0631,1.889,5.31,1111122 
SCCF RECON,ioos:station:SCCF:11:1,2014-07-07T02:00:00Z,26.4679,-82.0631,1.899,5.93,1111122 
SCCF RECON,ioos:station:SCCF:11:1,2014-07-07T03:00:00Z,26.4679,-82.0631,1.9,5.23,1111122 
SCCF RECON,ioos:station:SCCF:11:1,2014-07-07T04:00:00Z,26.4679,-82.0631,1.86,4.96,1111122 
SCCF RECON,ioos:station:SCCF:11:1,2014-07-07T05:00:00Z,26.4679,-82.0631,1.78,5.35,1111122 
SCCF RECON,ioos:station:SCCF:11:1,2014-07-07T06:00:00Z,26.4679,-82.0631,1.75,5.23,1111122 
SCCF RECON,ioos:station:SCCF:11:1,2014-07-07T07:00:00Z,26.4679,-82.0631,1.73,5.04,1111122 
SCCF RECON,ioos:station:SCCF:11:1,2014-07-07T08:00:00Z,26.4679,-82.0631,1.75,4.88,1111122 
SCCF RECON,ioos:station:SCCF:11:1,2014-07-07T09:00:00Z,26.4679,-82.0631,1.815,4.24,1111122 
SCCF RECON,ioos:station:SCCF:11:1,2014-07-07T10:00:00Z,26.4679,-82.0631,1.93,4.33,1111122 
SCCF RECON,ioos:station:SCCF:11:1,2014-07-07T11:00:00Z,26.4679,-82.0631,2.0,4.26,1111122 
SCCF RECON,ioos:station:SCCF:11:1,2014-07-07T12:00:00Z,26.4679,-82.0631,2.07,3.74,1111122 
SCCF RECON,ioos:station:SCCF:11:1,2014-07-07T13:00:00Z,26.4679,-82.0631,2.09,4.06,1111122 
SCCF RECON,ioos:station:SCCF:11:1,2014-07-07T14:00:00Z,26.4679,-82.0631,2.12,4.09,1111122 
SCCF RECON,ioos:station:SCCF:11:1,2014-07-07T15:00:00Z,26.4679,-82.0631,2.089,4.07,1111122 
SCCF RECON,ioos:station:SCCF:11:1,2014-07-07T16:00:00Z,26.4679,-82.0631,2.007,4.03,1111122 
SCCF RECON,ioos:station:SCCF:11:1,2014-07-07T17:00:00Z,26.4679,-82.0631,1.87,4.01,1111122 
SCCF RECON,ioos:station:SCCF:11:1,2014-07-07T18:00:00Z,26.4679,-82.0631,1.75,3.79,1111122 
SCCF RECON,ioos:station:SCCF:11:1,2014-07-07T19:00:00Z,26.4679,-82.0631,1.63,3.74,1111122 
SCCF RECON,ioos:station:SCCF:11:1,2014-07-07T20:00:00Z,26.4679,-82.0631,1.54,3.71,1111122 
SCCF RECON,ioos:station:SCCF:11:1,2014-07-07T21:00:00Z,26.4679,-82.0631,1.51,3.83,1111122 
SCCF RECON,ioos:station:SCCF:11:1,2014-07-07T22:00:00Z,26.4679,-82.0631,1.55,4.02,1111122 
SCCF RECON,ioos:station:SCCF:11:1,2014-07-07T23:00:00Z,26.4679,-82.0631,1.63,4.04,1111122 
SCCF RECON,ioos:station:SCCF:11:1,2014-07-08T00:00:00Z,26.4679,-82.0631,1.7,4.45,1111122 
SCCF RECON,ioos:station:SCCF:11:1,2014-07-08T01:00:00Z,26.4679,-82.0631,1.773,4.14,1111122 
SCCF RECON,ioos:station:SCCF:11:1,2014-07-08T02:00:00Z,26.4679,-82.0631,1.84,3.8,1111122 
SCCF RECON,ioos:station:SCCF:11:1,2014-07-08T03:00:00Z,26.4679,-82.0631,1.888,4.03,1111122 
SCCF RECON,ioos:station:SCCF:11:1,2014-07-08T04:00:00Z,26.4679,-82.0631,1.91,3.85,1111122 
SCCF RECON,ioos:station:SCCF:11:1,2014-07-08T05:00:00Z,26.4679,-82.0631,1.91,3.97,1111122 
SCCF RECON,ioos:station:SCCF:11:1,2014-07-08T06:00:00Z,26.4679,-82.0631,1.87,3.85,1111122 
SCCF RECON,ioos:station:SCCF:11:1,2014-07-08T07:00:00Z,26.4679,-82.0631,1.82,3.72,1111122 
SCCF RECON,ioos:station:SCCF:11:1,2014-07-08T08:00:00Z,26.4679,-82.0631,1.79,3.55,1111122 
SCCF RECON,ioos:station:SCCF:11:1,2014-07-08T09:00:00Z,26.4679,-82.0631,1.79,3.39,1111122 
SCCF RECON,ioos:station:SCCF:11:1,2014-07-08T10:00:00Z,26.4679,-82.0631,1.83,3.18,1111122 
SCCF RECON,ioos:station:SCCF:11:1,2014-07-08T11:00:00Z,26.4679,-82.0631,1.91,2.91,1111122 
SCCF RECON,ioos:station:SCCF:11:1,2014-07-08T12:00:00Z,26.4679,-82.0631,2.02,3.81,1111122 
SCCF RECON,ioos:station:SCCF:11:1,2014-07-08T13:00:00Z,26.4679,-82.0631,2.09,3.71,1111122 
SCCF RECON,ioos:station:SCCF:11:1,2014-07-08T14:00:00Z,26.4679,-82.0631,2.17,3.93,1111122 
SCCF RECON,ioos:station:SCCF:11:1,2014-07-08T15:00:00Z,26.4679,-82.0631,2.18,4.04,1111122 
SCCF RECON,ioos:station:SCCF:11:1,2014-07-08T16:00:00Z,26.4679,-82.0631,2.132,4.41,1111122 
SCCF RECON,ioos:station:SCCF:11:1,2014-07-08T17:00:00Z,26.4679,-82.0631,1.997,4.56,1111122 
SCCF RECON,ioos:station:SCCF:11:1,2014-07-08T18:00:00Z,26.4679,-82.0631,1.85,4.81,1111122 
SCCF RECON,ioos:station:SCCF:11:1,2014-07-08T19:00:00Z,26.4679,-82.0631,1.72,5.37,1111122 
SCCF RECON,ioos:station:SCCF:11:1,2014-07-08T20:00:00Z,26.4679,-82.0631,1.601,5.91,1111122 
SCCF RECON,ioos:station:SCCF:11:1,2014-07-08T21:00:00Z,26.4679,-82.0631,1.52,6.39,1111122 
SCCF RECON,ioos:station:SCCF:11:1,2014-07-08T22:00:00Z,26.4679,-82.0631,1.48,6.52,1111122 
SCCF RECON,ioos:station:SCCF:11:1,2014-07-08T23:00:00Z,26.4679,-82.0631,1.51,7.0,1111122 
SCCF RECON,ioos:station:SCCF:11:1,2014-07-09T00:00:00Z,26.4679,-82.0631,1.6,5.76,1111122 
SCCF RECON,ioos:station:SCCF:11:1,2014-07-09T01:00:00Z,26.4679,-82.0631,1.65,5.44,1111122 
SCCF RECON,ioos:station:SCCF:11:1,2014-07-09T02:00:00Z,26.4679,-82.0631,1.73,5.62,1111122 
SCCF RECON,ioos:station:SCCF:11:1,2014-07-09T03:00:00Z,26.4679,-82.0631,1.82,5.66,1111122 
SCCF RECON,ioos:station:SCCF:11:1,2014-07-09T04:00:00Z,26.4679,-82.0631,1.89,5.16,1111122 
SCCF RECON,ioos:station:SCCF:11:1,2014-07-09T05:00:00Z,26.4679,-82.0631,1.91,5.17,1111122 
SCCF RECON,ioos:station:SCCF:11:1,2014-07-09T06:00:00Z,26.4679,-82.0631,1.89,5.28,1111122 
SCCF RECON,ioos:station:SCCF:11:1,2014-07-09T07:00:00Z,26.4679,-82.0631,1.84,5.12,1111122 
SCCF RECON,ioos:station:SCCF:11:1,2014-07-09T08:00:00Z,26.4679,-82.0631,1.77,4.94,1111122 
SCCF RECON,ioos:station:SCCF:11:1,2014-07-09T09:00:00Z,26.4679,-82.0631,1.73,4.59,1111122 
SCCF RECON,ioos:station:SCCF:11:1,2014-07-09T10:00:00Z,26.4679,-82.0631,1.78,4.02,1111122 
SCCF RECON,ioos:station:SCCF:11:1,2014-07-09T11:00:00Z,26.4679,-82.0631,1.86,3.85,1111122 
SCCF RECON,ioos:station:SCCF:11:1,2014-07-09T12:00:00Z,26.4679,-82.0631,1.95,3.98,1111122 
SCCF RECON,ioos:station:SCCF:11:1,2014-07-09T13:00:00Z,26.4679,-82.0631,2.05,4.18,1111122 
SCCF RECON,ioos:station:SCCF:11:1,2014-07-09T14:00:00Z,26.4679,-82.0631,2.14,4.56,1111122 
SCCF RECON,ioos:station:SCCF:11:1,2014-07-09T15:00:00Z,26.4679,-82.0631,2.18,4.93,1111122 
SCCF RECON,ioos:station:SCCF:11:1,2014-07-09T16:00:00Z,26.4679,-82.0631,2.19,4.91,1111122 
SCCF RECON,ioos:station:SCCF:11:1,2014-07-09T17:00:00Z,26.4679,-82.0631,2.091,5.54,1111122 
SCCF RECON,ioos:station:SCCF:11:1,2014-07-09T18:00:00Z,26.4679,-82.0631,1.95,5.46,1111122 
SCCF RECON,ioos:station:SCCF:11:1,2014-07-09T19:00:00Z,26.4679,-82.0631,1.805,5.75,1111122 
SCCF RECON,ioos:station:SCCF:11:1,2014-07-09T20:00:00Z,26.4679,-82.0631,1.66,6.07,1111122 
SCCF RECON,ioos:station:SCCF:11:1,2014-07-09T21:00:00Z,26.4679,-82.0631,1.518,6.32,1111122 
SCCF RECON,ioos:station:SCCF:11:1,2014-07-09T22:00:00Z,26.4679,-82.0631,1.43,6.6,1111122 
SCCF RECON,ioos:station:SCCF:11:1,2014-07-09T23:00:00Z,26.4679,-82.0631,1.398,6.55,1111122 
SCCF RECON,ioos:station:SCCF:11:1,2014-07-10T00:00:00Z,26.4679,-82.0631,1.45,7.48,1111122 
SCCF RECON,ioos:station:SCCF:11:1,2014-07-10T01:00:00Z,26.4679,-82.0631,1.58,6.13,1111122 
SCCF RECON,ioos:station:SCCF:11:1,2014-07-10T02:00:00Z,26.4679,-82.0631,1.71,6.08,1111122 
SCCF RECON,ioos:station:SCCF:11:1,2014-07-10T03:00:00Z,26.4679,-82.0631,1.83,6.43,1111122 
SCCF RECON,ioos:station:SCCF:11:1,2014-07-10T04:00:00Z,26.4679,-82.0631,1.91,5.95,1111122 
SCCF RECON,ioos:station:SCCF:11:1,2014-07-10T05:00:00Z,26.4679,-82.0631,1.96,5.69,1111122 
SCCF RECON,ioos:station:SCCF:11:1,2014-07-10T06:00:00Z,26.4679,-82.0631,1.96,5.73,1111122 
SCCF RECON,ioos:station:SCCF:11:1,2014-07-10T07:00:00Z,26.4679,-82.0631,1.91,5.44,1111122 
SCCF RECON,ioos:station:SCCF:11:1,2014-07-10T08:00:00Z,26.4679,-82.0631,1.86,5.17,1111122 
SCCF RECON,ioos:station:SCCF:11:1,2014-07-10T09:00:00Z,26.4679,-82.0631,1.815,5.11,1111122 
SCCF RECON,ioos:station:SCCF:11:1,2014-07-10T10:00:00Z,26.4679,-82.0631,1.79,4.92,1111122 
SCCF RECON,ioos:station:SCCF:11:1,2014-07-10T11:00:00Z,26.4679,-82.0631,1.813,4.46,1111122 
SCCF RECON,ioos:station:SCCF:11:1,2014-07-10T12:00:00Z,26.4679,-82.0631,1.92,4.31,1111122 
SCCF RECON,ioos:station:SCCF:11:1,2014-07-10T13:00:00Z,26.4679,-82.0631,2.02,5.04,1111122 
SCCF RECON,ioos:station:SCCF:11:1,2014-07-10T14:00:00Z,26.4679,-82.0631,2.12,4.94,1111122 
SCCF RECON,ioos:station:SCCF:11:1,2014-07-10T15:00:00Z,26.4679,-82.0631,2.22,4.7,1111122 
SCCF RECON,ioos:station:SCCF:11:1,2014-07-10T16:00:00Z,26.4679,-82.0631,2.26,4.81,1111122 
SCCF RECON,ioos:station:SCCF:11:1,2014-07-10T17:00:00Z,26.4679,-82.0631,2.203,5.57,1111122 
SCCF RECON,ioos:station:SCCF:11:1,2014-07-10T18:00:00Z,26.4679,-82.0631,2.07,5.95,1111122 
SCCF RECON,ioos:station:SCCF:11:1,2014-07-10T19:00:00Z,26.4679,-82.0631,1.894,5.76,1111122 
SCCF RECON,ioos:station:SCCF:11:1,2014-07-10T20:00:00Z,26.4679,-82.0631,1.731,5.78,1111122 
SCCF RECON,ioos:station:SCCF:11:1,2014-07-10T21:00:00Z,26.4679,-82.0631,1.6,5.96,1111122 
SCCF RECON,ioos:station:SCCF:11:1,2014-07-10T22:00:00Z,26.4679,-82.0631,1.467,6.16,1111122 
SCCF RECON,ioos:station:SCCF:11:1,2014-07-10T23:00:00Z,26.4679,-82.0631,1.34,6.1,1111122 
SCCF RECON,ioos:station:SCCF:11:1,2014-07-11T00:00:00Z,26.4679,-82.0631,1.32,5.83,1111122 
SCCF RECON,ioos:station:SCCF:11:1,2014-07-11T01:00:00Z,26.4679,-82.0631,1.419,5.8,1111122 
SCCF RECON,ioos:station:SCCF:11:1,2014-07-11T02:00:00Z,26.4679,-82.0631,1.562,5.51,1111122 
SCCF RECON,ioos:station:SCCF:11:1,2014-07-11T03:00:00Z,26.4679,-82.0631,1.69,5.07,1111122 
SCCF RECON,ioos:station:SCCF:11:1,2014-07-11T04:00:00Z,26.4679,-82.0631,1.794,4.67,1111122 
SCCF RECON,ioos:station:SCCF:11:1,2014-07-11T05:00:00Z,26.4679,-82.0631,1.89,5.07,1111122 
SCCF RECON,ioos:station:SCCF:11:1,2014-07-11T06:00:00Z,26.4679,-82.0631,1.95,4.72,1111122 
SCCF RECON,ioos:station:SCCF:11:1,2014-07-11T07:00:00Z,26.4679,-82.0631,1.95,4.82,1111122 
SCCF RECON,ioos:station:SCCF:11:1,2014-07-11T08:00:00Z,26.4679,-82.0631,1.88,4.74,1111122 
SCCF RECON,ioos:station:SCCF:11:1,2014-07-11T09:00:00Z,26.4679,-82.0631,1.8,4.56,1111122 
SCCF RECON,ioos:station:SCCF:11:1,2014-07-11T10:00:00Z,26.4679,-82.0631,1.75,4.29,1111122 
SCCF RECON,ioos:station:SCCF:11:1,2014-07-11T11:00:00Z,26.4679,-82.0631,1.729,3.37,1111122 
SCCF RECON,ioos:station:SCCF:11:1,2014-07-11T12:00:00Z,26.4679,-82.0631,1.78,3.76,1111122 
SCCF RECON,ioos:station:SCCF:11:1,2014-07-11T13:00:00Z,26.4679,-82.0631,1.89,4.44,1111122 
SCCF RECON,ioos:station:SCCF:11:1,2014-07-11T14:00:00Z,26.4679,-82.0631,2.025,5.1,1111122 
SCCF RECON,ioos:station:SCCF:11:1,2014-07-11T15:00:00Z,26.4679,-82.0631,2.12,4.8,1111122 
SCCF RECON,ioos:station:SCCF:11:1,2014-07-11T16:00:00Z,26.4679,-82.0631,2.19,4.89,1111122 
SCCF RECON,ioos:station:SCCF:11:1,2014-07-11T17:00:00Z,26.4679,-82.0631,2.23,5.22,1111122 
SCCF RECON,ioos:station:SCCF:11:1,2014-07-11T18:00:00Z,26.4679,-82.0631,2.2,6.3,1111122 
SCCF RECON,ioos:station:SCCF:11:1,2014-07-11T19:00:00Z,26.4679,-82.0631,2.077,6.26,1111122 
SCCF RECON,ioos:station:SCCF:11:1,2014-07-11T20:00:00Z,26.4679,-82.0631,1.87,6.01,1111122 
SCCF RECON,ioos:station:SCCF:11:1,2014-07-11T21:00:00Z,26.4679,-82.0631,1.71,5.84,1111122 